Weather History for Oelwein, IA

Change the Weather History Date:

Thursday, December 6, 2012

  Actual Average Record
Temperature  
Mean Temperature 40 °F -  
Max Temperature 46 °F 31 °F 59 °F (1951)
Min Temperature 35 °F 15 °F -9 °F (1977)
Degree Days  
Heating Degree Days 24    
Moisture  
Dew Point 34 °F    
Average Humidity 78    
Maximum Humidity 93    
Minimum Humidity 62    
Precipitation  
Precipitation 0.01 in - - ()
Sea Level Pressure  
Sea Level Pressure 29.93 in    
Wind  
Wind Speed 13 mph (SSW)    
Max Wind Speed 20 mph    
Max Gust Speed 24 mph    
Visibility 10 miles    
Events Rain    
Averages and records for this station are not official NWS values.
T = Trace of Precipitation, MM = Missing Value Source: NWS Daily Summary

Daily Weather History Graph

Daily Weather History Graph

Search for Another Location

Airport:

Trip Planner

Search our weather history database for the weather conditions in past years. The results will help you decide how hot, cold, wet, or windy it might be!

Date:

Astronomy

Dec. 06, 2012 Rise Set
Actual Time 7:24 AM CST 4:34 PM CST
Civil Twilight 6:52 AM CST 5:06 PM CST
Nautical Twilight 6:16 AM CST 5:41 PM CST
Astronomical Twilight 5:42 AM CST 6:15 PM CST
Moon No Moon Rise 12:09 PM CST (12/6)
Length of Visible Light 10h 13m
Length of Day
9h 10m
Waning Gibbous, 49% of the Moon is Illuminated
Dec 6
Waning Gibbous
Dec 13
New
Dec 19
First Quarter
Dec 28
Full
Jan 4
Last Quarter

Hourly Weather History & Observations

Time (CST) Temp. Windchill Dew Point Humidity Pressure Visibility Wind Dir Wind Speed Gust Speed Precip Events Conditions
12:15 AM 37.4 °F 27.8 °F 30.2 °F 75% 30.04 in 10.0 mi SSE 17.3 mph - N/A   Clear
12:35 AM 37.4 °F 27.5 °F 30.2 °F 75% 30.03 in 10.0 mi SSE 18.4 mph - N/A   Clear
12:55 AM 37.4 °F 27.8 °F 32.0 °F 81% 30.02 in 10.0 mi SSE 17.3 mph - N/A   Clear
1:15 AM 37.4 °F 27.2 °F 32.0 °F 81% 30.00 in 10.0 mi SE 19.6 mph - N/A   Clear
1:35 AM 37.4 °F 28.2 °F 32.0 °F 81% 30.01 in 10.0 mi SSE 16.1 mph - N/A   Clear
1:55 AM 37.4 °F 28.9 °F 32.0 °F 81% 30.02 in 10.0 mi SSE 13.8 mph - N/A   Clear
2:15 AM 37.4 °F 28.5 °F 32.0 °F 81% 30.01 in 10.0 mi SSE 15.0 mph - N/A   Clear
2:35 AM 37.4 °F 28.5 °F 32.0 °F 81% 30.01 in 10.0 mi SSE 15.0 mph - N/A   Clear
2:55 AM 37.4 °F 28.2 °F 32.0 °F 81% 29.99 in 10.0 mi SSE 16.1 mph - N/A   Clear
3:15 AM 37.4 °F 28.9 °F 32.0 °F 81% 29.99 in 10.0 mi SSE 13.8 mph - N/A   Clear
3:35 AM 39.2 °F 30.5 °F 32.0 °F 75% 29.97 in 10.0 mi SSE 16.1 mph 20.7 mph N/A   Clear
4:00 AM 39.2 °F 30.2 °F 33.8 °F 81% 29.96 in 10.0 mi SSE 17.3 mph - N/A   Clear
4:20 AM 41.0 °F 32.8 °F 33.8 °F 76% 29.96 in 10.0 mi South 16.1 mph - N/A   Clear
4:41 AM 42.8 °F 34.8 °F 33.8 °F 70% 29.94 in 10.0 mi SSE 17.3 mph 21.9 mph N/A   Scattered Clouds
5:01 AM 41.0 °F 32.2 °F 33.8 °F 76% 29.93 in 10.0 mi SSE 18.4 mph 23.0 mph N/A   Clear
5:21 AM 41.0 °F 32.2 °F 33.8 °F 76% 29.93 in 10.0 mi SSE 18.4 mph 23.0 mph N/A   Clear
5:41 AM 41.0 °F 32.5 °F 33.8 °F 76% 29.94 in 10.0 mi South 17.3 mph - N/A   Clear
6:01 AM 42.8 °F 34.5 °F 33.8 °F 70% 29.93 in 10.0 mi South 18.4 mph 24.2 mph N/A   Clear
6:22 AM 42.8 °F 34.5 °F 33.8 °F 70% 29.93 in 10.0 mi South 18.4 mph - N/A   Clear
7:01 AM 42.8 °F 34.5 °F 33.8 °F 70% 29.93 in 10.0 mi South 18.4 mph - N/A   Clear
7:21 AM 42.8 °F 35.1 °F 33.8 °F 70% 29.92 in 10.0 mi South 16.1 mph - N/A   Clear
7:35 AM 41.0 °F 32.8 °F 33.8 °F 76% 29.92 in 10.0 mi South 16.1 mph - N/A   Clear
7:38 AM 42.8 °F 34.8 °F 33.8 °F 70% 29.92 in 10.0 mi South 17.3 mph - N/A   Clear
7:55 AM 42.8 °F 34.8 °F 33.8 °F 70% 29.92 in 10.0 mi South 17.3 mph - N/A   Clear
8:15 AM 42.8 °F 34.8 °F 33.8 °F 70% 29.91 in 10.0 mi South 17.3 mph 23.0 mph N/A   Clear
8:35 AM 42.8 °F 35.4 °F 33.8 °F 70% 29.92 in 10.0 mi South 15.0 mph - N/A   Clear
8:55 AM 42.8 °F 34.5 °F 33.8 °F 70% 29.92 in 10.0 mi South 18.4 mph 21.9 mph N/A   Clear
9:15 AM 42.8 °F 35.8 °F 33.8 °F 70% 29.92 in 10.0 mi South 13.8 mph - N/A   Clear
9:35 AM 44.6 °F 38.1 °F 33.8 °F 66% 29.92 in 10.0 mi South 13.8 mph 18.4 mph N/A   Clear
9:55 AM 42.8 °F 34.8 °F 33.8 °F 70% 29.92 in 10.0 mi South 17.3 mph - N/A   Scattered Clouds
10:15 AM 44.6 °F 38.1 °F 33.8 °F 66% 29.92 in 10.0 mi South 13.8 mph - N/A   Clear
10:35 AM 44.6 °F 38.1 °F 33.8 °F 66% 29.91 in 10.0 mi South 13.8 mph - N/A   Clear
10:55 AM 44.6 °F 38.1 °F 33.8 °F 66% 29.90 in 10.0 mi SSW 13.8 mph - N/A   Scattered Clouds
11:15 AM 44.6 °F 38.4 °F 33.8 °F 66% 29.89 in 10.0 mi SSW 12.7 mph - N/A   Scattered Clouds
11:35 AM 46.4 °F 41.1 °F 33.8 °F 62% 29.89 in 10.0 mi SSW 11.5 mph - N/A   Clear
11:55 AM 46.4 °F 41.9 °F 35.6 °F 66% 29.88 in 10.0 mi SSW 9.2 mph - N/A Rain Rain
12:15 PM 44.6 °F 38.8 °F 37.4 °F 76% 29.88 in 10.0 mi SW 11.5 mph - N/A Rain Light Rain
12:35 PM 44.6 °F 39.2 °F 37.4 °F 76% 29.88 in 10.0 mi SW 10.4 mph - 0.01 in Rain Light Rain
12:55 PM 44.6 °F 38.8 °F 37.4 °F 76% 29.87 in 10.0 mi SW 11.5 mph - 0.01 in Rain Rain
1:15 PM 42.8 °F 37.0 °F 37.4 °F 81% 29.87 in 10.0 mi SW 10.4 mph - N/A   Light Drizzle
1:35 PM 44.6 °F 39.7 °F 37.4 °F 76% 29.87 in 10.0 mi SW 9.2 mph - N/A   Clear
1:55 PM 44.6 °F 40.2 °F 39.2 °F 81% 29.86 in 10.0 mi SW 8.1 mph - N/A   Clear
2:15 PM 44.6 °F 40.2 °F 39.2 °F 81% 29.87 in 10.0 mi SW 8.1 mph - N/A   Clear
2:35 PM 44.6 °F 40.7 °F 39.2 °F 81% 29.87 in 10.0 mi WSW 6.9 mph - N/A   Clear
2:55 PM 44.6 °F 40.7 °F 39.2 °F 81% 29.87 in 10.0 mi WSW 6.9 mph - N/A   Clear
3:15 PM 44.6 °F 41.4 °F 39.2 °F 81% 29.87 in 10.0 mi WSW 5.8 mph - N/A   Clear
3:35 PM 44.6 °F 40.7 °F 39.2 °F 81% 29.88 in 10.0 mi WSW 6.9 mph - N/A   Clear
3:55 PM 44.6 °F 41.4 °F 39.2 °F 81% 29.88 in 10.0 mi WSW 5.8 mph - N/A   Clear
4:15 PM 42.8 °F 39.3 °F 39.2 °F 87% 29.88 in 10.0 mi WSW 5.8 mph - N/A   Clear
4:35 PM 42.8 °F 39.3 °F 41.0 °F 93% 29.88 in 10.0 mi WSW 5.8 mph - N/A   Clear
4:55 PM 42.8 °F 38.6 °F 41.0 °F 93% 29.88 in 10.0 mi WSW 6.9 mph - N/A   Clear
5:15 PM 41.0 °F 38.0 °F 39.2 °F 93% 29.89 in 10.0 mi West 4.6 mph - N/A   Clear
5:35 PM 41.0 °F 36.4 °F 39.2 °F 93% 29.89 in 10.0 mi NW 6.9 mph - N/A   Clear
5:55 PM 41.0 °F 35.8 °F 35.6 °F 81% 29.90 in 10.0 mi NW 8.1 mph - N/A   Clear
6:15 PM 41.0 °F 36.4 °F 35.6 °F 81% 29.91 in 10.0 mi NW 6.9 mph - N/A   Clear
6:35 PM 41.0 °F 37.1 °F 35.6 °F 81% 29.92 in 10.0 mi NW 5.8 mph - N/A   Clear
6:55 PM 41.0 °F 35.2 °F 35.6 °F 81% 29.92 in 10.0 mi NW 9.2 mph - N/A   Clear
7:15 PM 41.0 °F 35.2 °F 33.8 °F 76% 29.92 in 10.0 mi NW 9.2 mph - N/A   Clear
7:35 PM 41.0 °F 35.2 °F 32.0 °F 70% 29.92 in 10.0 mi NNW 9.2 mph - N/A   Clear
7:55 PM 37.4 °F 30.8 °F 32.0 °F 81% 29.92 in 10.0 mi NW 9.2 mph - N/A   Clear
8:35 PM 35.6 °F 30.7 °F 32.0 °F 87% 29.93 in 10.0 mi NW 5.8 mph - N/A   Clear
8:55 PM 35.6 °F 32.8 °F 32.0 °F 87% 29.93 in 10.0 mi NNW 3.5 mph - N/A   Clear
9:15 PM 35.6 °F - 32.0 °F 87% 29.93 in 10.0 mi Calm Calm - N/A   Clear
9:35 PM 35.6 °F - 32.0 °F 87% 29.94 in 10.0 mi Calm Calm - N/A   Clear
9:55 PM 35.6 °F - 32.0 °F 87% 29.94 in 10.0 mi Calm Calm - N/A   Clear
10:15 PM 35.6 °F - 32.0 °F 87% 29.94 in 10.0 mi Calm Calm - N/A   Clear
10:35 PM 35.6 °F - 32.0 °F 87% 29.94 in 10.0 mi Calm Calm - N/A   Clear
10:55 PM 35.6 °F 32.8 °F 32.0 °F 87% 29.94 in 10.0 mi NNW 3.5 mph - N/A   Clear
11:15 PM 35.6 °F 32.8 °F 32.0 °F 87% 29.95 in 10.0 mi NNW 3.5 mph - N/A   Clear
11:35 PM 35.6 °F - 32.0 °F 87% 29.95 in 10.0 mi Calm Calm - N/A   Clear
11:55 PM 35.6 °F - 32.0 °F 87% 29.95 in 10.0 mi Calm Calm - N/A   Clear